Powrót do katalogu

MARS ORBITER MISSION

AktywnyNaukaHCO
NORAD 39370·PAYLOAD·🇮🇳 India

Wystrzelony Nov 5, 2013 z Satish Dhawan Space Centre

Loading…

TLE

NieaktualneSource: Space-Track

Epoka: Nov 15, 2013, 20:28 UTC

1 39370U 13060A   13319.85296673 -.00001668  00000-0  00000+0 0  9996
2 39370 019.4167 122.9551 9306301 288.8779 002.1288 00.25833433   156

Śledź MARS ORBITER MISSION w czasie rzeczywistym z AllMySat

Download on the App Store